Showing default

ARASE (ERG), 41896

Orbit data source: Space-Track

ARASE (ERG), 41896 is a payload satellite owned by ISAS/JAXA (JP) in HEO that was launched on Tue, 20 Dec 2016 UTC via an EPSILON launch vehicle from the Kagoshima Space Center University Of Tokyo (KSCUT). Payloads include a variety of satellites, spacecraft, and rockets equipped with specific instruments for various scientific and technological missions. These include communications satellites like Starlink; space stations such as the ISS; scientific satellites like the Hubble; Earth observation satellites from companies like Planet Labs, Umbra, and HawkEye 360; GPS; miniature CubeSats for education and research; and military/defense satellites.

Loading next visibility...
ARASE (ERG) details
Identifier
41896, 2016-080A
Orbit
HEO
Last TLE update15 hours ago
Origin
Flag of JPISAS/JAXA (JP / JPN)
ManufacturerISAS/JAXA
MissionOperational Civil Science
Bus & MotorSPRINT-B, Unknown motor
Mass350 kg wet, 350 kg dry
Launch date (UTC)
2016-12-20 (8 years ago)
Launch vehicle
EPSILON
Launch site
Kagoshima Space Center University Of Tokyo (KSCUT)
Object type
Payload
Rocket body
Debris
Shape & HBRBox + 4 Pan + 6 Ant, Unknown HBR
Radar Cross Section33.836 m², Large (>1 m²)

Expand to show TLE details & history

TLE from 15 hours ago
0 ARASE (ERG)
1 41896U 16080A   24336.69223035  .00005380  00000-0  52243-2 0  9995
2 41896  31.3181 232.3103 7022231  62.9491 350.5791  2.56368852 73802
Epoch: 2024-12-01T16:36Z
Definitive object data (Epoch: 2024-12-01T16:36:48.702Z)
Latitude0.00007°
Longitude-87.83254°
Altitude2,274.31 km
Speed8.629 km/s
True Right ascension15h 29m 35s
True Declination0° 00' 00"
Sunlit
Object was in daylight at TLE epoch
Visualization TLE readout
Latitude-28.89023°
Longitude156.76918°
Altitude31,681.238 km
Speed1.809 km/s
Apparent Right ascension08h 11m 56s
Apparent Declination-37° 04' 44"
Sunlit
Object is in daylight
Visualization observer readout
Local Sidereal Time05:11:06
Azimuth145.477° SSE
Elevation2.535°
Doppler factor1
Orbital elements
Apogee altitude32,013.539 km
Perigee altitude337.877 km
Semi-major axis22,553.845 km
Eccentricity0.7022231
Inclination31.3181°
RAAN232.3103°
Arg. of periapsis62.9491°
True anomaly296.89093°
Mean anomaly350.5791°
Eccentric anomaly331.18965°
Mean motion0.64078 °/min
BSTAR0.0052243
Orbital period561.81 mins
Loading maneuver chart data...
Loading historical data...
Loading historical data...
Loading historical data...
Loading historical data...
Loading historical data...
Loading historical data...
Loading historical data...
Other satellites on launch #80 in the year 2016 (2016-12-20 UTC)

ARASE (ERG) Visibility forecast

Observer location: undefined°, undefined

Span
Click to sort rows by Start time (UTC) header in descending order
Start Az.
Max El. time (UTC)
Max El. Az.
Max El.
End time (UTC)
End Az.
43 mins2024-12-03 06:42:02.627Z248.777° W2024-12-03 07:14:02.627Z206.317° SW23.025°2024-12-03 07:25:02.627Z200.96° SSW
|